Starlink 3049

operational
NORAD ID: 49436 Int'l Des: 2021-104 Owner: SPXS Country: US Constellation: starlink
LEOCIRCULAR

Über Starlink 3049

Beschreibung wird geladen...

Live-Position

3D-Globus wird geladen...

Nächste Überflüge

Höhenverlauf

Altitude vs Time

uPlot chart will show altitude changes over time

Zweizeiliger Elementsatz

1 49436U 21104AE 26093.27779401 .00000914 00000-0 75504-4 0 9990
2 49436 53.2170 98.7418 0001164 86.7915 273.3210 15.08838587242628
Epoch: 3. Apr. 2026 • Age: 19 hours

Aktueller Status

Höhe 548.9 km
Geschwindigkeit 7.59 km/s
Subsatellitenpunkt -28.82°S, 145.06°W
Startdatum 13. Nov. 2021
Alter 4.3 years
Typ internet

Technische Details

Klassifizierung Payload
Masse 290.00 kg
Trockenmasse 270.00 kg
Gesamtmasse 290.00 kg
Länge 0.20 m
Durchmesser 2.80 m
Spannweite 9.00 m
Form Box + pan
Hersteller SPXS
Bus-Typ Starlink
Phasenstatus In Orbit
Besitzer/Staat SPXS/US

Große Konstellationen

Loading constellations...